Weather in Rincon

Puerto Rico     18°20′24″N   67°14′01″W
temp.,
°C
wind,
m/s
gust,
m/s
humid.,
%
clouds,
%
prec.,
mm/h
press.,
hPa
HPBL,
m
17 april, sat
sat1723:00+25e33814 0.0 1015188
02:00+25se12805 0.0 1014190
05:00+25e22790 0.0 1014202
08:00+26ene12761 0.0 1016247
11:00+27wsw44734 0.0 1016420
14:00+29s810652 0.1 1014476
17:00+28nne24767 0.6 1014438
20:00+26ene347853 0.6 1016304
18 april, sun
sun1823:00+26ese22800 0.0 1017211
02:00+25se57850 0.0 1015363
05:00+24ese44820 0.0 1015219
08:00+25ese23750 0.0 1017258
11:00+27wnw33700 0.0 1018399
14:00+28wsw24693 0.0 1016397
17:00+27n557556 0.1 1015469
20:00+27n12739 0.1 1017203
19 april, mon
mon1923:00+26ese35720 0.0 1018273
02:00+25ese34760 0.0 1016198
05:00+25ese46760 0.0 1016380
08:00+25e34735 0.0 1019301
11:00+27wnw4368100 0.0 1019429
14:00+27n2366100 0.0 1017472
17:00+26nnw54737 0.0 1017523
20:00+26nw127373 0.0 1018386
20 april, tue
tue2023:00+25se577722 0.0 1019360
02:00+24ese33774 0.0 1017202
05:00+24ene22770 0.0 1017179
08:00+25ene22700 0.0 1019213
11:00+26wnw54690 0.0 1019446
14:00+27nnw87728 0.0 1017690
17:00+26wnw43720 1.2 1016295
20:00+26s45740 1.3 1017502
21 april, wed
wed2123:00+25ene34750 0.0 1018317
02:00+24ese22762 0.0 1017146
05:00+23e33772 0.0 1016175
08:00+24ese11715 0.0 1018211
11:00+26w667215 0.0 1018419
14:00+27wsw446831 1.1 1016454
17:00+27n667012 0.3 1015515
20:00+26n33736 0.4 1017446